SCP
-0 -0 -0 0 -0 -0 -0 -0 -0 -0 -0 0 0 0 0 0 -0 -0 -0 -0 -0 -0 0 0 0 0 0 0 0 0 0 0 -0 -0 -0 0 -0 0 0 -0 -0 0 -0
-0 -0 -0 -0 0 -0 -0 -0 -0 -0 -0 0 0 0 0 0 -0 -0 -0 -0 -0 -0 -0 -0 -0 -0 -0 -0 0 0 0 0 0 -0 -0 -0 -0 -0 -0 0 -0 0 -0
-0 -0 -0 0 -0 -0 -0 -0 -0 -0 -0 0 0 0 0 0 0 -0 -0 -0 0 0 0 -0 -0 -0 -0 -0 -0 -0 -0 0 0 -0 -0 0 0 -0 -0 -0 -0 -0 -0
-0 -0 -0 0 -0 -0 -0 -0 -0 -0 -0 -0 0 0 0 -0 -0 -0 -0 -0 -0 -0 -0 -0 -0 -0 -0 -0 -0 -0 -0 -0 -0 -0 0 -0 0 0 -0 0 -0 -0 -0
-0 -0 -0 -0 -0 -0 -0 -0 -0 -0 -0 -0 0 0 0 -0 -0 -0 -0 -0 -0 -0 -0 -0 -0 -0 -0 -0 -0 -0 -0 -0 0 -0 -0 -0 0 0 -0 -0 -0 -0 0
-0 -0 -0 -0 -0 -0 -0 -0 -0 -0 -0 -0 -0 0 -0 -0 -0 -0 -0 -0 -0 -0 -0 -0 -0 -0 -0 -0 -0 -0 -0 0 0 0 0 0 -0 0 -0 0 0 -0 -0
-0 -0 -0 -0 -0 -0 -0 -0 -0 -0 -0 -0 0 0 0 0 -0 -0 -0 -0 -0 -0 -0 -0 -0 -0 -0 -0 -0 -0 -0 0 0 0 0 -0 -0 -0 -0 -0 -0 -0 -0
-1 -0 -0 -0 -0 -0 -0 -0 -0 -0 -0 0 0 -0 -0 0 0 0 0 -0 -0 0 0 0 0 0 -0 -0 0 0 -0 0 0 0 0 0 -0 -0 -0 -0 -0 -0 -0
-0 -0 -0 -0 -0 -0 -0 -0 -0 -0 -0 -0 -0 -0 -0 -0 -0 -0 -0 -0 -0 -0 -0 0 0 0 0 0 0 0 0 0 0 -0 0 0 -0 -0 -0 -0 -0 -0 -0
-0 -0 -0 -0 -0 -0 -0 -0 -0 -0 -0 -0 -0 -0 -0 -0 -0 -0 -0 -0 -0 -0 -0 0 -0 0 0 -0 -0 -0 0 -0 0 0 0 -0 -0 -0 -0 -0 -0 -0 -0
-0 -0 -0 -0 -0 -0 -0 -0 -0 -0 -0 -0 -0 -0 -0 -0 -0 -0 -0 -1 -0 -0 -0 -0 -0 -0 0 0 -0 -0 -0 0 0 -0 -0 -0 -0 -0 -0 -0 -0 -0 -0
-0 -0 -0 -0 -0 -0 -0 -0 -0 -0 -0 -0 -0 -0 -0 -0 -0 -0 -0 -1 -0 -0 -0 -0 -0 -0 0 0 0 -0 -0 -0 0 -0 -0 -0 -0 -0 -0 -0 -0 -0 -0
0 0 -0 -0 -0 -0 -0 -0 -0 -0 -0 -0 -0 -0 -0 -0 -0 -0 -0 -0 -0 -0 -0 -0 -0 0 0 0 0 -0 -0 -0 -0 -0 -0 -0 -0 -0 -0 -0 -0 -0 -0
-0 0 0 -0 -0 -0 -0 -0 -0 0 0 -0 -0 -0 0 -0 -0 -0 -0 -0 0 0 -0 0 0 -0 0 -0 -0 -0 -0 -0 0 -0 -0 -0 -0 -0 -0 -0 -0 -0 -0
-0 -0 -0 0 -0 -0 -0 -0 -0 0 0 -0 0 0 0 -0 -0 -0 -0 0 0 0 0 0 0 0 0 0 0 0 -0 -0 0 0 0 -0 -0 -0 -0 -0 -0 -0 -0
-0 -0 -0 -0 -0 0 0 0 0 -0 0 -0 0 0 0 0 -0 -0 0 -0 0 -0 0 0 1 0 0 0 0 -0 0 -0 -0 0 0 0 -0 -0 -0 -0 -0 -0 -0
-0 -0 -0 -0 -0 -0 0 0 0 0 0 0 0 0 0 0 0 0 -0 0 -0 0 0 0 0 0 0 0 0 0 -0 -0 0 0 0 0 0 -0 -0 -0 -0 -0 -0
-0 -0 -0 -0 -0 -0 -0 0 0 -0 -0 0 0 0 0 0 0 0 -0 -0 -0 -0 0 0 0 0 1 1 0 0 0 0 0 0 0 0 0 0 -0 -0 -0 -0 -0
-0 -0 -0 -0 -0 -0 -0 -0 -0 0 0 -0 -0 0 0 0 0 0 0 0 -0 0 -0 0 1 0 0 1 1 2 0 0 0 -0 -0 -0 0 0 0 -0 -0 -0 -0
-0 -0 -0 -0 -0 -1 -0 -0 -0 -0 0 0 0 0 0 0 0 1 0 -0 -0 0 -0 0 1 0 1 1 0 0 0 0 0 0 0 -0 0 0 0 0 0 0 0
-0 -0 -0 -0 -0 -0 -0 -0 -0 -0 -0 0 0 0 0 0 0 1 0 0 0 0 0 0 1 2 1 1 1 0 1 0 0 0 -0 0 0 0 0 1 1 1 0
-1 -1 -1 -1 -0 -0 0 0 0 0 0 0 0 0 1 1 1 1 1 1 0 0 0 0 1 1 2 2 2 1 1 1 0 0 0 0 0 0 0 0 0 0 1
-0 -1 -1 -1 -0 -0 0 1 1 0 0 1 1 2 2 1 2 1 1 1 1 1 1 1 1 2 1 1 2 1 1 1 1 1 1 1 0 0 0 0 0 0 1
-0 -0 -1 -1 -0 1 1 1 1 1 1 1 1 2 2 3 2 2 2 2 1 1 1 1 3 2 3 1 1 1 2 2 1 0 1 0 0 0 0 0 0 0 0
-0 0 0 1 1 1 2 2 2 1 1 1 2 2 3 5 4 3 3 3 2 2 1 1 2 2 3 2 2 1 1 2 1 1 0 1 0 0 0 0 0 0 0
0 0 0 2 2 2 3 3 2 2 2 3 3 4 5 4 4 4 4 4 4 3 2 2 1 1 2 2 1 1 2 3 2 1 1 1 1 1 2 0 0 0 0
Wind_Speed_500mb
33 40 41 37 35 36 34 35 36 37 36 33 32 30 30 26 24 22 20 16 11 13 11 9 5 4 5 8 11 13 17 19 18 17 21 24 29 37 44 37 25 25 28
46 42 42 38 36 37 36 34 33 34 33 28 26 23 23 21 22 19 18 15 12 13 11 6 2 1 6 7 11 11 11 10 14 13 13 21 26 29 36 40 26 16 24
49 45 43 38 35 38 34 34 31 31 30 28 23 20 17 14 11 10 10 10 12 12 9 3 1 2 4 8 12 15 13 11 8 12 13 12 20 23 22 25 27 17 20
45 45 43 39 37 36 32 31 30 27 27 25 23 17 13 10 8 9 10 10 8 7 5 1 3 6 9 10 12 13 13 9 6 8 3 25 28 17 16 19 20 18 19
41 38 40 40 35 32 30 28 28 26 23 21 16 15 9 4 7 8 8 9 9 8 7 6 5 6 6 7 8 11 11 8 7 13 18 54 10 13 13 14 18 18 18
38 39 34 34 32 30 28 27 25 22 20 17 13 11 7 5 3 4 7 9 9 10 10 9 7 5 4 3 2 6 6 11 18 11 9 19 15 11 13 15 21 21 16
45 37 30 32 31 29 26 25 23 20 18 15 11 8 7 5 3 4 5 8 9 10 9 8 7 6 4 2 1 1 2 6 10 13 15 4 13 12 15 16 15 18 17
38 27 31 31 29 28 26 24 20 17 14 12 10 9 7 6 5 6 3 7 8 7 8 10 9 6 3 3 3 3 2 4 10 6 8 15 10 6 14 18 13 18 16
38 27 33 33 30 27 24 20 17 15 13 13 13 9 7 8 7 7 6 9 10 9 8 8 6 5 2 0 2 5 7 3 7 8 18 8 9 7 17 20 14 16 15
37 35 25 22 25 21 19 16 14 12 11 12 12 11 9 10 8 8 8 11 8 9 9 11 7 3 4 5 5 6 8 3 13 9 12 15 10 9 10 20 16 11 16
33 34 37 30 19 21 18 10 7 12 10 12 12 9 7 12 5 6 8 9 4 2 6 9 3 8 4 3 3 7 4 9 1 7 25 8 11 10 14 20 18 13 14
30 32 38 37 35 25 24 15 15 8 0 4 5 2 11 9 17 13 6 11 10 5 4 11 10 11 10 18 11 13 12 6 6 8 13 12 12 14 15 18 17 17 16
28 28 29 37 27 12 29 24 9 17 5 6 14 14 15 12 16 5 8 14 4 8 6 9 11 12 14 10 9 8 2 4 1 24 15 17 15 12 11 14 16 20 20
30 27 26 35 27 18 28 22 21 32 27 14 19 26 26 23 17 23 23 19 11 11 1 8 14 22 7 8 5 10 10 8 13 19 16 19 21 17 12 12 15 18 20
32 30 29 28 26 22 27 24 16 11 27 13 25 14 14 24 14 16 21 15 16 18 8 10 15 17 6 9 7 8 7 11 8 14 20 19 17 13 10 9 12 17 20
29 31 30 31 37 31 29 23 33 23 14 27 17 23 20 18 19 28 22 24 26 21 18 22 26 23 11 13 19 10 13 6 14 19 20 23 22 20 17 16 16 18 20
28 29 31 30 30 38 35 40 29 25 18 18 31 16 23 25 33 33 28 24 24 23 22 28 21 22 13 13 23 27 14 17 17 18 21 26 23 23 21 20 22 23 24
25 30 30 27 30 29 32 32 28 25 30 26 27 27 35 37 31 33 35 32 26 27 33 29 19 24 27 25 16 35 18 19 16 17 13 15 25 19 19 18 16 22 27
29 33 30 29 30 31 25 25 25 28 29 36 30 30 35 40 40 37 33 29 33 33 33 32 33 30 30 22 26 41 37 13 27 29 25 26 26 27 28 24 21 20 22
32 31 37 34 32 32 29 22 24 23 27 26 30 33 34 40 40 37 40 40 36 39 41 38 38 38 36 26 18 28 21 22 23 36 32 36 21 26 27 33 34 28 25
35 39 36 43 39 44 41 36 29 38 30 31 30 33 36 41 42 43 40 39 40 52 49 47 46 48 51 47 43 42 41 43 36 36 22 28 21 25 25 34 35 36 31
42 43 46 44 43 46 45 41 37 31 29 34 35 35 41 43 51 51 52 46 46 45 53 57 55 56 49 31 39 38 45 31 35 40 37 39 52 43 43 46 46 41 36
45 50 48 48 46 48 45 40 40 41 46 40 41 45 42 49 53 51 52 55 46 49 56 52 54 61 66 61 64 54 26 33 33 19 28 46 55 29 51 54 50 44 36
49 49 49 51 51 50 47 47 47 46 47 42 39 51 48 52 53 58 57 55 60 58 57 62 59 53 56 57 53 44 53 51 49 44 38 31 30 28 32 48 54 46 45
45 50 51 51 53 51 48 45 45 50 57 46 47 45 50 49 57 64 68 68 65 68 69 66 64 71 64 67 65 63 58 55 54 50 45 41 53 43 32 39 44 36 54
38 46 47 50 48 48 47 49 48 47 46 43 45 45 43 49 54 60 61 59 66 76 72 74 71 72 67 72 60 63 65 63 53 51 48 63 47 31 31 41 54 52 60
Wind_Direction_500mb
164 163 155 148 140 141 140 136 134 135 131 130 130 126 120 115 109 104 105 111 122 125 131 124 103 63 26 25 29 38 69 84 86 96 108 109 114 114 109 100 89 106 99
157 156 153 146 149 149 146 145 146 144 142 141 137 132 125 120 117 100 94 95 128 131 135 114 102 26 335 332 338 342 357 33 62 58 90 109 123 127 120 122 133 105 105
154 155 154 147 146 154 149 151 153 153 157 154 153 145 132 136 141 142 141 123 115 122 142 124 70 12 326 329 324 321 325 342 16 48 49 129 129 132 136 135 131 121 108
147 151 153 151 148 153 156 155 154 159 162 161 171 165 154 144 148 154 162 177 166 158 169 201 315 309 307 322 326 324 328 5 4 106 298 206 139 158 134 131 122 124 109
148 146 153 153 155 153 158 158 162 168 167 174 179 177 169 160 169 151 169 180 195 214 242 264 292 314 305 319 338 346 350 32 98 129 231 205 203 152 142 151 136 132 128
145 165 160 155 157 160 159 159 160 165 171 185 186 175 179 204 165 181 216 221 221 229 235 243 254 272 290 300 356 20 54 69 116 94 217 123 166 218 151 159 153 146 143
151 173 167 161 160 160 163 162 161 162 170 178 180 183 198 210 189 198 225 233 218 214 223 218 212 218 187 180 236 63 54 143 75 71 52 354 141 181 166 174 161 155 155
158 173 174 162 160 161 166 167 164 168 178 185 191 197 201 167 158 162 177 208 188 184 179 185 183 170 150 151 198 240 70 136 151 294 153 246 247 246 209 192 183 171 170
144 156 167 166 164 168 169 167 174 177 178 171 174 182 186 172 146 139 124 118 154 159 170 161 130 115 95 68 272 281 293 309 210 210 203 206 228 269 219 192 164 167 172
155 151 157 170 174 170 167 171 176 188 189 187 188 189 189 145 116 112 131 108 130 153 138 107 95 41 37 37 22 342 300 217 191 122 172 194 237 265 197 183 170 186 194
161 160 161 173 172 156 210 207 228 234 204 184 184 169 145 164 51 96 73 17 344 198 113 102 22 6 9 228 316 103 40 168 138 259 201 210 228 284 216 199 205 204 195
171 172 170 169 173 169 190 212 253 183 105 108 128 219 169 216 238 188 322 323 308 261 150 67 0 353 271 299 106 100 80 58 62 259 168 193 282 265 227 211 212 201 198
176 170 183 176 166 155 177 210 176 228 197 224 186 228 176 245 246 222 271 291 300 260 274 345 338 317 238 272 18 74 151 269 221 219 247 277 288 250 228 221 213 204 201
180 184 182 180 178 166 185 175 186 194 204 256 226 227 188 195 183 213 245 271 311 317 177 245 270 309 277 224 315 333 211 256 215 239 265 285 280 244 228 216 219 216 212
180 186 188 194 179 169 170 190 214 191 200 245 232 274 205 175 176 232 204 218 239 272 287 228 255 276 290 257 291 210 238 207 248 223 256 260 271 236 229 243 239 231 225
180 187 191 194 207 199 205 190 211 195 213 209 225 269 267 202 219 213 230 238 234 234 246 263 220 256 264 275 264 170 263 265 257 245 266 264 266 249 241 260 256 248 237
179 189 194 193 211 202 209 214 203 203 209 229 218 236 255 256 218 225 217 241 241 247 239 253 287 294 308 243 259 285 218 220 266 270 236 279 264 269 262 256 254 247 242
180 185 191 195 206 221 214 217 212 208 208 222 230 229 241 254 250 232 229 217 236 238 252 263 263 276 267 264 282 295 280 252 200 193 255 233 267 275 270 270 278 260 253
191 187 193 196 201 220 227 224 220 211 229 209 224 234 241 251 266 242 229 243 219 237 240 253 264 267 269 266 281 254 265 288 304 256 234 225 233 247 267 272 268 269 273
190 201 194 202 193 212 238 233 223 231 230 230 226 227 236 250 260 262 251 228 233 240 237 242 255 262 269 263 260 311 273 288 311 278 249 214 246 233 238 257 254 262 281
194 197 207 199 207 207 216 232 226 221 233 236 234 231 230 236 250 258 263 249 242 229 233 246 248 260 259 251 280 275 288 286 285 296 233 286 229 197 223 253 247 260 261
200 210 210 218 216 224 227 224 229 244 239 241 243 243 245 240 235 241 252 255 242 243 239 234 239 253 267 251 257 268 273 268 288 276 261 250 229 252 238 251 240 235 235
211 211 220 230 233 237 237 232 236 234 232 236 244 240 247 255 256 253 237 249 253 233 239 249 255 248 252 258 257 254 263 247 252 265 241 238 255 281 254 245 265 259 245
217 216 222 235 244 248 249 237 229 245 248 253 254 256 254 248 261 265 264 252 249 247 241 237 243 250 249 252 261 244 250 257 251 263 269 275 260 274 275 239 269 264 238
217 217 219 231 242 245 246 249 247 238 240 250 261 263 264 259 260 257 264 270 265 258 256 247 240 240 244 253 253 251 252 253 254 251 259 273 266 264 256 248 248 265 245
211 207 214 226 237 244 241 248 248 242 242 245 245 250 258 267 266 261 263 269 271 263 257 262 257 250 247 247 249 251 249 248 253 247 242 235 239 253 252 255 254 262 262
Wind_Speed_850mb
33 40 41 37 35 36 34 35 36 37 36 33 32 30 30 26 24 22 20 16 11 13 11 9 5 4 5 8 11 13 17 19 18 17 21 24 29 37 44 37 25 25 28
46 42 42 38 36 37 36 34 33 34 33 28 26 23 23 21 22 19 18 15 12 13 11 6 2 1 6 7 11 11 11 10 14 13 13 21 26 29 36 40 26 16 24
49 45 43 38 35 38 34 34 31 31 30 28 23 20 17 14 11 10 10 10 12 12 9 3 1 2 4 8 12 15 13 11 8 12 13 12 20 23 22 25 27 17 20
45 45 43 39 37 36 32 31 30 27 27 25 23 17 13 10 8 9 10 10 8 7 5 1 3 6 9 10 12 13 13 9 6 8 3 25 28 17 16 19 20 18 19
41 38 40 40 35 32 30 28 28 26 23 21 16 15 9 4 7 8 8 9 9 8 7 6 5 6 6 7 8 11 11 8 7 13 18 54 10 13 13 14 18 18 18
38 39 34 34 32 30 28 27 25 22 20 17 13 11 7 5 3 4 7 9 9 10 10 9 7 5 4 3 2 6 6 11 18 11 9 19 15 11 13 15 21 21 16
45 37 30 32 31 29 26 25 23 20 18 15 11 8 7 5 3 4 5 8 9 10 9 8 7 6 4 2 1 1 2 6 10 13 15 4 13 12 15 16 15 18 17
38 27 31 31 29 28 26 24 20 17 14 12 10 9 7 6 5 6 3 7 8 7 8 10 9 6 3 3 3 3 2 4 10 6 8 15 10 6 14 18 13 18 16
38 27 33 33 30 27 24 20 17 15 13 13 13 9 7 8 7 7 6 9 10 9 8 8 6 5 2 0 2 5 7 3 7 8 18 8 9 7 17 20 14 16 15
37 35 25 22 25 21 19 16 14 12 11 12 12 11 9 10 8 8 8 11 8 9 9 11 7 3 4 5 5 6 8 3 13 9 12 15 10 9 10 20 16 11 16
33 34 37 30 19 21 18 10 7 12 10 12 12 9 7 12 5 6 8 9 4 2 6 9 3 8 4 3 3 7 4 9 1 7 25 8 11 10 14 20 18 13 14
30 32 38 37 35 25 24 15 15 8 0 4 5 2 11 9 17 13 6 11 10 5 4 11 10 11 10 18 11 13 12 6 6 8 13 12 12 14 15 18 17 17 16
28 28 29 37 27 12 29 24 9 17 5 6 14 14 15 12 16 5 8 14 4 8 6 9 11 12 14 10 9 8 2 4 1 24 15 17 15 12 11 14 16 20 20
30 27 26 35 27 18 28 22 21 32 27 14 19 26 26 23 17 23 23 19 11 11 1 8 14 22 7 8 5 10 10 8 13 19 16 19 21 17 12 12 15 18 20
32 30 29 28 26 22 27 24 16 11 27 13 25 14 14 24 14 16 21 15 16 18 8 10 15 17 6 9 7 8 7 11 8 14 20 19 17 13 10 9 12 17 20
29 31 30 31 37 31 29 23 33 23 14 27 17 23 20 18 19 28 22 24 26 21 18 22 26 23 11 13 19 10 13 6 14 19 20 23 22 20 17 16 16 18 20
28 29 31 30 30 38 35 40 29 25 18 18 31 16 23 25 33 33 28 24 24 23 22 28 21 22 13 13 23 27 14 17 17 18 21 26 23 23 21 20 22 23 24
25 30 30 27 30 29 32 32 28 25 30 26 27 27 35 37 31 33 35 32 26 27 33 29 19 24 27 25 16 35 18 19 16 17 13 15 25 19 19 18 16 22 27
29 33 30 29 30 31 25 25 25 28 29 36 30 30 35 40 40 37 33 29 33 33 33 32 33 30 30 22 26 41 37 13 27 29 25 26 26 27 28 24 21 20 22
32 31 37 34 32 32 29 22 24 23 27 26 30 33 34 40 40 37 40 40 36 39 41 38 38 38 36 26 18 28 21 22 23 36 32 36 21 26 27 33 34 28 25
35 39 36 43 39 44 41 36 29 38 30 31 30 33 36 41 42 43 40 39 40 52 49 47 46 48 51 47 43 42 41 43 36 36 22 28 21 25 25 34 35 36 31
42 43 46 44 43 46 45 41 37 31 29 34 35 35 41 43 51 51 52 46 46 45 53 57 55 56 49 31 39 38 45 31 35 40 37 39 52 43 43 46 46 41 36
45 50 48 48 46 48 45 40 40 41 46 40 41 45 42 49 53 51 52 55 46 49 56 52 54 61 66 61 64 54 26 33 33 19 28 46 55 29 51 54 50 44 36
49 49 49 51 51 50 47 47 47 46 47 42 39 51 48 52 53 58 57 55 60 58 57 62 59 53 56 57 53 44 53 51 49 44 38 31 30 28 32 48 54 46 45
45 50 51 51 53 51 48 45 45 50 57 46 47 45 50 49 57 64 68 68 65 68 69 66 64 71 64 67 65 63 58 55 54 50 45 41 53 43 32 39 44 36 54
38 46 47 50 48 48 47 49 48 47 46 43 45 45 43 49 54 60 61 59 66 76 72 74 71 72 67 72 60 63 65 63 53 51 48 63 47 31 31 41 54 52 60
Wind_Direction_850mb
164 163 155 148 140 141 140 136 134 135 131 130 130 126 120 115 109 104 105 111 122 125 131 124 103 63 26 25 29 38 69 84 86 96 108 109 114 114 109 100 89 106 99
157 156 153 146 149 149 146 145 146 144 142 141 137 132 125 120 117 100 94 95 128 131 135 114 102 26 335 332 338 342 357 33 62 58 90 109 123 127 120 122 133 105 105
154 155 154 147 146 154 149 151 153 153 157 154 153 145 132 136 141 142 141 123 115 122 142 124 70 12 326 329 324 321 325 342 16 48 49 129 129 132 136 135 131 121 108
147 151 153 151 148 153 156 155 154 159 162 161 171 165 154 144 148 154 162 177 166 158 169 201 315 309 307 322 326 324 328 5 4 106 298 206 139 158 134 131 122 124 109
148 146 153 153 155 153 158 158 162 168 167 174 179 177 169 160 169 151 169 180 195 214 242 264 292 314 305 319 338 346 350 32 98 129 231 205 203 152 142 151 136 132 128
145 165 160 155 157 160 159 159 160 165 171 185 186 175 179 204 165 181 216 221 221 229 235 243 254 272 290 300 356 20 54 69 116 94 217 123 166 218 151 159 153 146 143
151 173 167 161 160 160 163 162 161 162 170 178 180 183 198 210 189 198 225 233 218 214 223 218 212 218 187 180 236 63 54 143 75 71 52 354 141 181 166 174 161 155 155
158 173 174 162 160 161 166 167 164 168 178 185 191 197 201 167 158 162 177 208 188 184 179 185 183 170 150 151 198 240 70 136 151 294 153 246 247 246 209 192 183 171 170
144 156 167 166 164 168 169 167 174 177 178 171 174 182 186 172 146 139 124 118 154 159 170 161 130 115 95 68 272 281 293 309 210 210 203 206 228 269 219 192 164 167 172
155 151 157 170 174 170 167 171 176 188 189 187 188 189 189 145 116 112 131 108 130 153 138 107 95 41 37 37 22 342 300 217 191 122 172 194 237 265 197 183 170 186 194
161 160 161 173 172 156 210 207 228 234 204 184 184 169 145 164 51 96 73 17 344 198 113 102 22 6 9 228 316 103 40 168 138 259 201 210 228 284 216 199 205 204 195
171 172 170 169 173 169 190 212 253 183 105 108 128 219 169 216 238 188 322 323 308 261 150 67 0 353 271 299 106 100 80 58 62 259 168 193 282 265 227 211 212 201 198
176 170 183 176 166 155 177 210 176 228 197 224 186 228 176 245 246 222 271 291 300 260 274 345 338 317 238 272 18 74 151 269 221 219 247 277 288 250 228 221 213 204 201
180 184 182 180 178 166 185 175 186 194 204 256 226 227 188 195 183 213 245 271 311 317 177 245 270 309 277 224 315 333 211 256 215 239 265 285 280 244 228 216 219 216 212
180 186 188 194 179 169 170 190 214 191 200 245 232 274 205 175 176 232 204 218 239 272 287 228 255 276 290 257 291 210 238 207 248 223 256 260 271 236 229 243 239 231 225
180 187 191 194 207 199 205 190 211 195 213 209 225 269 267 202 219 213 230 238 234 234 246 263 220 256 264 275 264 170 263 265 257 245 266 264 266 249 241 260 256 248 237
179 189 194 193 211 202 209 214 203 203 209 229 218 236 255 256 218 225 217 241 241 247 239 253 287 294 308 243 259 285 218 220 266 270 236 279 264 269 262 256 254 247 242
180 185 191 195 206 221 214 217 212 208 208 222 230 229 241 254 250 232 229 217 236 238 252 263 263 276 267 264 282 295 280 252 200 193 255 233 267 275 270 270 278 260 253
191 187 193 196 201 220 227 224 220 211 229 209 224 234 241 251 266 242 229 243 219 237 240 253 264 267 269 266 281 254 265 288 304 256 234 225 233 247 267 272 268 269 273
190 201 194 202 193 212 238 233 223 231 230 230 226 227 236 250 260 262 251 228 233 240 237 242 255 262 269 263 260 311 273 288 311 278 249 214 246 233 238 257 254 262 281
194 197 207 199 207 207 216 232 226 221 233 236 234 231 230 236 250 258 263 249 242 229 233 246 248 260 259 251 280 275 288 286 285 296 233 286 229 197 223 253 247 260 261
200 210 210 218 216 224 227 224 229 244 239 241 243 243 245 240 235 241 252 255 242 243 239 234 239 253 267 251 257 268 273 268 288 276 261 250 229 252 238 251 240 235 235
211 211 220 230 233 237 237 232 236 234 232 236 244 240 247 255 256 253 237 249 253 233 239 249 255 248 252 258 257 254 263 247 252 265 241 238 255 281 254 245 265 259 245
217 216 222 235 244 248 249 237 229 245 248 253 254 256 254 248 261 265 264 252 249 247 241 237 243 250 249 252 261 244 250 257 251 263 269 275 260 274 275 239 269 264 238
217 217 219 231 242 245 246 249 247 238 240 250 261 263 264 259 260 257 264 270 265 258 256 247 240 240 244 253 253 251 252 253 254 251 259 273 266 264 256 248 248 265 245
211 207 214 226 237 244 241 248 248 242 242 245 245 250 258 267 266 261 263 269 271 263 257 262 257 250 247 247 249 251 249 248 253 247 242 235 239 253 252 255 254 262 262